Home > Weather > Forchheim > Past weeks

Flag for Germany Weather for the Past 2 Weeks in Forchheim, Bavaria, Germany

Now
50 °F

Passing clouds.


Feels Like: 47 °F
Forecast: 48 / 72 °F
Wind: 8 mph from East

Location: Nuernberg

Current Time: May 5, 2016 at 8:53:33 AM

Latest Report: May 5, 2016 at 8:20 AM


Visibility: N/A

Pressure: 30.33 "Hg

Humidity: 67%

Dew Point: 39 °F

Location of ForchheimLocation

Historic Weather in Forchheim — Graph

°F

Forchheim Temperature Yesterday

Maximum temperature yesterday: 59 °F (at 4:50 PM)
Minimum temperature yesterday: 41 °F (at 5:50 AM)
Average temperature yesterday: 50 °F

High & Low Weather Summary for the Past Weeks

 TemperatureHumidityPressure
High66 °F (Apr 21, 3:50 PM)100% (Apr 24, 4:50 AM)30.42 "Hg (Apr 24, 4:50 AM)
Low28 °F (Apr 29, 5:20 AM)22% (Apr 21, 4:20 PM)29.50 "Hg (Apr 26, 6:50 AM)
Average47 °F65%30.01 "Hg
* Reported Apr 20 7:20 AM — May 5 7:20 AM, Forchheim, Weather by CustomWeather, © 2016

Note: Actual official high and low records may vary slightly from our data, if they occured in-between our weather recording intervals... More about our weather records

Advertising

Forchheim Weather History for the Previous 24 Hours

Scroll right to see more
 ConditionsComfort  
Time TempWeatherWind HumidityBarometerVisibility
7:20 AM
Thu, May 5
45 °FPartly sunny.2 mph76%30.33 "HgN/A
6:50 AM43 °FSunny.1 mph81%30.33 "Hg10 mi
6:20 AM43 °FPassing clouds.3 mph81%30.33 "HgN/A
5:50 AM41 °FClear.1 mph87%30.33 "Hg10 mi
5:20 AM41 °FClear.1 mph81%30.33 "Hg10 mi
4:50 AM41 °FClear.1 mph81%30.33 "Hg10 mi
4:20 AM41 °FClear.2 mph76%30.33 "Hg10 mi
3:50 AM41 °FClear.1 mph81%30.33 "Hg10 mi
3:20 AM43 °FClear.2 mph76%30.33 "Hg10 mi
2:50 AM43 °FClear.2 mph71%30.33 "Hg10 mi
2:20 AM43 °FClear.1 mph76%30.33 "Hg10 mi
1:50 AM41 °FClear.No wind76%30.33 "Hg10 mi
1:20 AM41 °FClear.No wind76%30.36 "Hg10 mi
12:50 AM41 °FClear.2 mph76%30.36 "Hg10 mi
12:20 AM45 °FClear.6 mph66%30.36 "Hg10 mi
11:50 PM
Wed, May 4
45 °FClear.7 mph66%30.36 "Hg10 mi
11:20 PM45 °FClear.7 mph61%30.36 "Hg10 mi
10:50 PM45 °FPassing clouds.5 mph57%30.36 "HgN/A
10:20 PM46 °FClear.2 mph50%30.33 "Hg10 mi
9:50 PM46 °FPassing clouds.3 mph50%30.33 "HgN/A
9:20 PM48 °FPassing clouds.3 mph46%30.33 "HgN/A
8:50 PM50 °FSunny.2 mph40%30.30 "Hg10 mi
8:20 PM52 °FPassing clouds.5 mph35%30.30 "HgN/A
7:50 PM54 °FPassing clouds.6 mph33%30.30 "HgN/A
7:20 PM55 °FPassing clouds.6 mph28%30.30 "HgN/A
6:50 PM55 °FPassing clouds.9 mph28%30.30 "HgN/A
6:20 PM57 °FPassing clouds.7 mph29%30.30 "HgN/A
5:50 PM57 °FPassing clouds.9 mph31%30.30 "HgN/A
5:20 PM57 °FSunny.8 mph33%30.30 "Hg10 mi
4:50 PM59 °FPassing clouds.7 mph34%30.30 "HgN/A
4:20 PM55 °FPassing clouds.7 mph33%30.30 "HgN/A
3:50 PM55 °FSunny.8 mph31%30.30 "Hg10 mi
3:20 PM55 °FSunny.8 mph33%30.30 "Hg10 mi
2:50 PM57 °FSunny.6 mph31%30.30 "Hg10 mi
2:20 PM55 °FSunny.7 mph31%30.33 "Hg10 mi
1:50 PM55 °FSunny.9 mph31%30.33 "Hg10 mi
1:20 PM54 °FSunny.8 mph35%30.33 "Hg10 mi
12:50 PM54 °FSunny.6 mph33%30.33 "Hg10 mi
12:20 PM54 °FSunny.8 mph33%30.33 "Hg10 mi
11:50 AM52 °FSunny.5 mph44%30.33 "Hg10 mi
11:20 AM52 °FPassing clouds.8 mph38%30.33 "HgN/A
10:50 AM52 °FPassing clouds.8 mph44%30.33 "HgN/A
10:20 AM50 °FPassing clouds.7 mph47%30.33 "HgN/A
9:50 AM48 °FPassing clouds.5 mph58%30.33 "HgN/A
9:20 AM46 °FPassing clouds.5 mph57%30.33 "HgN/A
8:50 AM46 °FPassing clouds.6 mph66%30.33 "HgN/A
8:20 AM46 °FPassing clouds.7 mph71%30.33 "HgN/A
Weather by CustomWeather, © 2016

See weather overviewHow to use our weather pages